Current Version              Previous Version:    01  02  03  04  05  06  07  08  09  10  11  12  13  14  15  16  17  18  19  20  21  22  23  24  25  26  27  28  29  30  
   31  32  33  34  35  36  37  38  39  40  41  42  43  44  45  46  47  48  49  50  51  52  53  54  55  56  57  58  59  60  

[Printable]
752
ASUS44 KFWD 290403
RWRTX
NORTH TEXAS HOURLY WEATHER ROUNDUP
NATIONAL WEATHER SERVICE FORT WORTH TX
1000 PM CST WED JAN 28 2015

NOTE: "FAIR" INDICATES FEW OR NO CLOUDS BELOW 12,000 FEET WITH NO
SIGNIFICANT WEATHER AND/OR OBSTRUCTIONS TO VISIBILITY.

TXZ118-119-290500-
DALLAS/FORT WORTH METROPLEX

CITY           SKY/WX    TMP DP  RH WIND       PRES   REMARKS
DFW AIRPORT    CLEAR     67  41  38 S21       30.00R
DALLAS LOVE    CLEAR     72  38  29 S14G22    30.01R
FTW MEACHAM    CLEAR     70  39  32 S20G26    30.00R
DAL-EXECUTIVE  CLEAR     71  39  31 S10G20    30.00S
FTW-ALLIANCE   PTCLDY    68  39  34 S12       29.99R
ARLINGTON      CLEAR     66  40  38 S12       30.01R
GRAND PRAIRIE  CLEAR     67  44  43 S13G21    30.03R
MESQUITE       CLEAR     64  41  42 S13       30.02R
LANCASTER      CLEAR     63  40  43 S12       30.03S
$$

TXZ091>094-102>105-117-120-121-131>134-290500-
NORTH CENTRAL TEXAS

CITY           SKY/WX    TMP DP  RH WIND       PRES   REMARKS
SHRMAN/DENISON CLEAR     67  45  44 S18       30.00R
BRIDGEPORT     CLEAR     67  43  41 SW12      30.02R
DECATUR        CLEAR     66  38  35 S12G17    30.00R
DENTON         CLEAR     62  43  49 S10       29.99R
MCKINNEY       CLEAR     68  40  35 S14       30.00R
GREENVILLE     CLEAR     68  37  32 S15G23    30.01S
ROCKWALL       CLEAR     64  44  48 S17G23    30.00R
TERRELL        CLEAR     67  42  40 S15       30.03S
WAXAHACHIE     CLEAR     65  43  44 S14G20    30.04S
CLEBURNE       CLEAR     63  41  45 SE10      30.05R
GRANBURY       CLEAR     68  39  34 S9        30.03R
$$

TXZ083>090-098>101-113>116-127>130-139>142-154-155-290500-
WESTERN NORTH TEXAS

CITY           SKY/WX    TMP DP  RH WIND       PRES   REMARKS
WICHITA FALLS  CLEAR     63  42  46 NW12      29.99R
WF-KICKAPOO    CLEAR     57  38  48 W3        30.02R
VERNON         CLEAR     58  31  35 NW3       30.03R
ABILENE        CLEAR     65  44  46 SW10      30.05R
ABILENE-DYESS  CLEAR     61  46  56 SW8       30.05R
MINERAL WELLS  CLEAR     60  40  47 E5        30.00R
STEPHENVILLE   CLEAR     65  37  36 S8        30.07R
COMANCHE       CLEAR     67  39  34 S18G26    30.05R
BROWNWOOD      CLEAR     61  37  41 S8        30.08R
COLEMAN        CLEAR     63  43  49 SW10      30.08R
BRADY          CLEAR     63  37  39 S6        30.10R
$$

TXZ143>147-156>162-174-175-290500-
CENTRAL TEXAS

CITY           SKY/WX    TMP DP  RH WIND       PRES   REMARKS
WACO           CLEAR     58  42  55 S12       30.07R
WACO-MCGREGOR  CLEAR     63  37  39 S12       30.09R
CORSICANA      CLEAR     65  41  41 S13       30.07S
MEXIA          CLEAR     64  43  46 S12G17    30.08R
HEARNE         CLEAR     58  47  65 SE6       30.12R
TEMPLE         PTCLDY    59  39  47 S13       30.09R
KILLEEN        PTCLDY    64  38  37 S12       30.10R
FORT HOOD      PTCLDY    64  38  39 S8        30.09R
HAMILTON       CLEAR     64  37  36 S20       30.07S
LAMPASAS       CLEAR     60  40  46 SW3       30.09S
$$

TXZ095>097-106>112-122>126-135>138-148>153-164>167-290500-
EAST TEXAS

CITY           SKY/WX    TMP DP  RH WIND       PRES   REMARKS
PARIS          CLEAR     61  43  51 S5        30.01R
MOUNT PLEASANT CLEAR     64  44  49 S12       30.05S
GILMER         CLEAR     64  46  51 S8        30.05R
MINEOLA        CLEAR     66  43  42 S9        30.05S
TYLER          CLEAR     65  45  48 S14       30.06R
LONGVIEW       CLEAR     64  47  53 S15       30.05S
MARSHALL       CLEAR     64  45  50 S10       30.08S
PALESTINE      CLEAR     65  43  44 S6        30.10R
JACKSONVILLE   CLEAR     63  49  61 CALM      30.10R
HENDERSON      CLEAR     62  47  59 S9        30.09R
NACOGDOCHES    CLEAR     57  45  62 S9        30.12F
LUFKIN         CLEAR     57  48  72 SE8       30.12F
$$

SUPPLEMENTAL OBSERVATIONS (CENTRAL)

CITY           SKY/WX    TMP DP  RH WIND       PRES   REMARKS
$$

SUPPLEMENTAL OBSERVATIONS (WEST)

CITY           SKY/WX    TMP DP  RH WIND       PRES   REMARKS
$$

SUPPLEMENTAL OBSERVATIONS (EAST)

CITY           SKY/WX    TMP DP  RH WIND       PRES   REMARKS
$$

SUPPLEMENTAL OBSERVATIONS ARE A COLLECTION OF AUTOMATED INSTRUMENTS
THAT ARE MAINTAINED BY A VARIETY OF FEDERAL AND STATE AGENCIES.
CERTAIN ELEMENTS...SUCH AS HUMIDITY VALUES AND SUSTAINED WIND
SPEEDS...MAY BE APPROXIMATED.